sat.trackr.live / text

‹ back to catalog

STARLINK-35564

NORAD 67420 · 2026-005S

PAYLOAD ACTIVE UNKNOWN

§ Identity

Operator
Country
US
Launch date
2026-01-12
Launch site
AFETR
Launch vehicle
Mass (kg)
RCS (m²)

Purposes: comms

External: N2YO · Heavens-Above · Gunter

§ Orbital elements

Epoch: 2026-05-25T01:08:21.166080Z

Period
94.26 min
Inclination
43.0008°
Eccentricity
0.0001274
Mean motion
15.27616759 rev/d
Perigee alt
482.1 km
Apogee alt
483.8 km
Semi-major
6,861.1 km
B*
7.4029e-4
RAAN
166.8223°
Arg perigee
273.5711°
Mean anomaly
86.4995°
Rev number
2,037

§ Raw data

STARLINK-355641 67420U 26005S   26145.04746720  .00020188  00000+0  74029-3 0  99932 67420  43.0008 166.8223 0001274 273.5711  86.4995 15.27616759 20376

JSON: /api/v1/satellites/67420 · /tle

For live sub-satellite position, see the globe view (requires WebGL).

§ Visibility from observer

Set your observer location to see the next 7 days of passes ≥ 10°. The values pass through the URL so the page stays shareable.

No JS? Fill the form by hand. The geolocation button needs JavaScript.